Torna al catalogo

SHIYAN 30 02

AttivoScienzaVLEO
NORAD 65852·PAYLOAD·🇨🇳 China

Lanciato Sep 29, 2025 da Xichang Satellite Launch Center

Loading…

Prossimi Passaggi (prossime 24 ore)

TLE

AggiornatoSource: Space-Track

Epoca: Sep 14, 2026, 18:25 UTC

1 65852U 25222B   26257.76766253  .00001400  00000-0  13822-3 0  9997
2 65852  34.9965  85.2994 0002661 201.5530 158.5063 14.91970837 52400

Traccia SHIYAN 30 02 in tempo reale con AllMySat

Download on the App Store